TimeAKST,TemperatureF,Dew PointF,Humidity,Sea Level PressureIn,VisibilityMPH,Wind Direction,Wind SpeedMPH,Gust SpeedMPH,PrecipitationIn,Events,Conditions,WindDirDegrees,DateUTC
12:53 AM,37.9,27.0,65,29.41,10.0,South,10.4,24.2,N/A,,Clear,180,2012-12-13 09:53:00
1:53 AM,39.0,28.0,65,29.41,10.0,SSW,13.8,24.2,N/A,,Mostly Cloudy,200,2012-12-13 10:53:00
2:29 AM,37.4,30.2,75,29.42,10.0,SSW,10.4,20.7,N/A,,Mostly Cloudy,200,2012-12-13 11:29:00
2:46 AM,37.4,28.4,70,29.43,10.0,SSE,8.1,23.0,0.00,,Mostly Cloudy,160,2012-12-13 11:46:00
3:53 AM,37.0,30.0,76,29.43,10.0,SW,11.5,21.9,0.00,,Scattered Clouds,220,2012-12-13 12:53:00
4:53 AM,39.0,28.0,65,29.45,10.0,Variable,6.9,18.4,N/A,,Mostly Cloudy,0,2012-12-13 13:53:00
5:53 AM,39.0,27.0,62,29.45,10.0,South,10.4,18.4,N/A,,Mostly Cloudy,190,2012-12-13 14:53:00
6:53 AM,39.0,26.1,60,29.45,10.0,Variable,3.5,16.1,N/A,,Overcast,0,2012-12-13 15:53:00
7:53 AM,39.0,26.1,60,29.46,10.0,South,9.2,20.7,N/A,,Overcast,180,2012-12-13 16:53:00
8:53 AM,37.9,26.1,62,29.47,10.0,South,8.1,-,N/A,,Scattered Clouds,190,2012-12-13 17:53:00
9:53 AM,37.9,26.1,62,29.45,10.0,South,6.9,-,N/A,,Scattered Clouds,180,2012-12-13 18:53:00
10:53 AM,39.0,26.1,60,29.45,10.0,South,6.9,-,N/A,,Mostly Cloudy,190,2012-12-13 19:53:00
11:53 AM,37.9,27.0,65,29.44,10.0,Variable,4.6,-,N/A,,Partly Cloudy,0,2012-12-13 20:53:00
12:53 PM,39.0,28.0,65,29.44,10.0,Calm,Calm,-,N/A,,Overcast,0,2012-12-13 21:53:00
1:53 PM,37.9,28.9,70,29.44,10.0,SSW,8.1,16.1,N/A,,Overcast,200,2012-12-13 22:53:00
3:53 PM,36.0,27.0,70,29.41,10.0,South,6.9,-,N/A,,Scattered Clouds,180,2012-12-14 00:53:00
4:53 PM,36.0,26.1,67,29.40,10.0,SW,6.9,-,N/A,,Clear,220,2012-12-14 01:53:00
5:53 PM,36.0,25.0,64,29.39,10.0,SSE,5.8,-,N/A,,Partly Cloudy,150,2012-12-14 02:53:00
6:53 PM,35.1,25.0,67,29.38,10.0,SSE,6.9,-,N/A,,Clear,150,2012-12-14 03:53:00
7:53 PM,36.0,25.0,64,29.37,10.0,Variable,6.9,-,N/A,,Mostly Cloudy,0,2012-12-14 04:53:00
8:53 PM,36.0,26.1,67,29.36,10.0,South,3.5,-,N/A,,Mostly Cloudy,190,2012-12-14 05:53:00
9:53 PM,34.0,26.1,73,29.33,10.0,Calm,Calm,-,N/A,,Mostly Cloudy,0,2012-12-14 06:53:00
10:53 PM,33.1,26.1,75,29.31,10.0,Calm,Calm,-,N/A,,Partly Cloudy,0,2012-12-14 07:53:00
11:53 PM,30.9,26.1,82,29.30,10.0,Calm,Calm,-,N/A,,Mostly Cloudy,0,2012-12-14 08:53:00